Location: Fort Wayne
(41.1310°N, 85.1290°W)
Time: 22:50:20
(UTC-04:00)

COSMOS 2406 - Visible Passes

Search period start: 27 May 2017 00:00
Search period end: 06 June 2017 00:00
Orbit: 843 x 864 km, 71.0° (Epoch: 26 May)

Date Brightness Start Highest point End Pass type
(mag) Time Alt. Az. Time Alt. Az. Time Alt. Az.
27 May 6.2 23:11:56 10° W 23:15:28 16° NW 23:19:00 10° N visible
28 May 6.2 23:00:35 10° W 23:04:04 16° NW 23:07:33 10° N visible
29 May 6.3 22:49:14 10° W 22:52:40 16° NW 22:56:08 10° N visible
30 May 6.4 22:37:53 10° W 22:41:17 16° NW 22:44:41 10° N visible
31 May 6.4 22:26:32 10° W 22:29:53 16° NW 22:33:14 10° NNW visible
01 Jun 4.7 05:34:39 10° NNW 05:40:03 43° ENE 05:45:24 10° SE visible
01 Jun 6.5 22:15:11 10° W 22:18:29 15° NW 22:21:48 10° NNW visible
02 Jun 4.6 05:23:14 10° NNW 05:28:38 44° ENE 05:34:00 10° SE visible
02 Jun 6.5 22:03:51 10° W 22:07:06 15° NW 22:10:21 10° NNW visible
03 Jun 4.6 05:11:49 10° NNW 05:17:14 44° ENE 05:22:37 10° SE visible
03 Jun 6.5 21:52:30 10° W 21:55:42 15° NW 21:58:55 10° NNW visible
04 Jun 4.5 05:00:24 10° NNW 05:05:50 45° ENE 05:11:13 10° SE visible
04 Jun 6.5 21:41:10 10° W 21:44:19 15° NW 21:47:28 10° NNW visible
05 Jun 4.4 04:48:59 10° NNW 04:54:26 45° ENE 04:59:50 10° SE visible
